Weather in Ivane-Puste

Ukraine / Ternopil District     48°38′37″N   26°11′24″E
temp.,
°C
wind,
m/s
gust,
m/s
humid.,
%
clouds,
%
prec.,
mm/h
press.,
hPa
HPBL,
m
18 may, wed
wed1800:00+10n61161100 0.0 1017566
03:00+7nnw4105927 0.0 1019418
06:00+5nnw512720 0.0 1020478
09:00+8nnw811561 0.0 10221099
12:00+11nnw81153100 0.0 10231876
15:00+11n71256100 0.0 10241874
18:00+12nnw61059100 0.0 10251761
21:00+11nnw4956100 0.0 1026616
19 may, thu
thu1900:00+7nw378113 0.0 1028119
03:00+6nw36885 0.0 1028104
06:00+5nw35915 0.0 1029114
09:00+11nw456734 0.0 1029510
12:00+16nw45505 0.0 10281387
15:00+18nw45435 0.0 10271541
18:00+18nw454989 0.0 10251404
21:00+13wnw2265100 0.0 102510
20 may, fri
fri2000:00+10wnw11725 0.0 102610
03:00+9w117340 0.0 102510
06:00+9wsw117437 0.0 102510
09:00+15wsw236270 0.0 1024259
12:00+20sw3348100 0.0 1023785
15:00+23w4540100 0.0 10211355
18:00+22wnw3651100 0.0 10191206
21:00+16w22675 0.0 101814
21 may, sat
sat2100:00+14wnw3775100 0.0 1017113
03:00+15wsw4968100 0.0 1015252
06:00+13w377481 0.0 1014129
09:00+18w356386 0.0 1013316
12:00+22wsw465685 0.0 1011737
15:00+21wnw51165100 0.0 1010847
18:00+22wnw61268100 0.4 10091398
21:00+15nw81587100 2.2 1011710
22 may, sun
sun2200:00+14w4990100 0.3 1012417
03:00+10w311915 0.3 1011293
06:00+10w6158342 0.0 1009698
09:00+12wnw10167775 0.2 10091197
12:00+12wnw101476100 0.1 10101212
15:00+12nw91274100 0.3 10111364
18:00+12nw81174100 0.1 10111287
21:00+11nw7117991 0.2 1011856